Regional Weather Roundup
Issued by NWS Little Rock, AR

Home | Current Version | Previous Version | Text Only | Print | Product List | Glossary On
Versions: 1 2 3 4 5 6 7 8 9 10 11 12 13 14 15 16 17 18 19 20 21 22 23 24 25 26 27 28 29 30 31 32
000
ASUS44 KLZK 161305
RWRLZK

WEATHER ROUNDUP FOR ARKANSAS
NATIONAL WEATHER SERVICE LITTLE ROCK AR
700 AM CST MON JAN 16 2017

NOTE: "FAIR" INDICATES FEW OR NO CLOUDS BELOW 12,000 FEET WITH NO
SIGNIFICANT WEATHER AND/OR OBSTRUCTIONS TO VISIBILITY.

ARZ001-003-010-029-161400-
NORTHWEST ARKANSAS

CITY           SKY/WX    TMP DP  RH WIND       PRES   REMARKS
FAYETTEVILLE   MOCLDY    57  55  93 S20G28    29.91S
FORT SMITH     CLOUDY    50  48  93 NE7       29.94S
HARRISON       FOG       45  45 100 SE10      29.98F VSB 1/4
BENTONVILLE    PTCLDY   N/A N/A N/A SE10      29.90S
ROGERS         MOCLDY    55  52  89 SE16G24   29.91S
SILOAM SPGS    CLOUDY    55  52  88 S13G20    29.90R
HIGHFILL       MOCLDY    57  54  89 S17G28    29.89S
SPRINGDALE     CLOUDY    55  55 100 SE9G16    29.93S
$$

ARZ004-005-016-161400-
NORTH CENTRAL ARKANSAS

CITY           SKY/WX    TMP DP  RH WIND       PRES   REMARKS
BATESVILLE     CLOUDY    45  43  93 CALM      30.10F VSB 1/2
FLIPPIN        CLOUDY    45  39  81 SE7       30.00F
MTN HOME       CLOUDY    44  44 100 SE9       30.01F FOG
$$

ARZ040-041-161400-
WEST CENTRAL ARKANSAS

CITY           SKY/WX    TMP DP  RH WIND       PRES   REMARKS
MENA           CLOUDY    61  59  94 CALM      29.95S
MOUNT IDA      CLOUDY    58  56  93 SE12G18   29.94S
$$

ARZ009-017-025-026-028-161400-
NORTHEAST ARKANSAS

CITY           SKY/WX    TMP DP  RH WIND       PRES   REMARKS
CORNING        FOG       45  45 100 NE7       30.13S VSB 1/4
JONESBORO      CLOUDY    46  46 100 NE7       30.11S FOG
NEWPORT        FOG       45  45 100 N3        30.11F VSB 1/2
WALNUT RIDGE   CLOUDY    45  43  93 NE6       30.11S VSB 1/2
BLYTHEVILLE    CLOUDY    51  49  92 SE3       30.13R
$$

ARZ022-023-033-042-044-161400-
CENTRAL ARKANSAS

CITY           SKY/WX    TMP DP  RH WIND       PRES   REMARKS
LITTLE ROCK    LGT RAIN  46  46 100 E5        30.08S FOG
N LITTLE ROCK    N/A     47  46  98 E6        30.10R
JACKSONVILLE   CLOUDY    48  48 100 E6        30.07S
SEARCY         CLOUDY    46  46 100 CALM      30.11R FOG
HOT SPRINGS    CLOUDY    52  52 100 E9        30.03S FOG
RUSSELLVILLE   LGT RAIN  47  47 100 VRB3G20   30.01R FOG
$$

ARZ036-161400-
EAST ARKANSAS

CITY           SKY/WX    TMP DP  RH WIND       PRES   REMARKS
WEST MEMPHIS   HVY RAIN  52  52 100 S6        30.11R FOG
$$

ARZ050-053-066-070-073-161400-
SOUTHWEST ARKANSAS

CITY           SKY/WX    TMP DP  RH WIND       PRES   REMARKS
ARKADELPHIA    CLOUDY    56  56 100 SE3       30.03F
CAMDEN         CLOUDY    59  55  88 SE8       30.05F
TEXARKANA      LGT RAIN  63  63 100 S21G26    29.97F
EL DORADO      CLOUDY    60  59  96 E9        30.06S
DE QUEEN       LGT RAIN  61  61 100 VRB6      29.93F FOG
$$

ARZ056-057-069-161400-
SOUTHEAST ARKANSAS

CITY           SKY/WX    TMP DP  RH WIND       PRES   REMARKS
PINE BLUFF     CLOUDY    49  49 100 SE3       30.10R
STUTTGART      CLOUDY    50  46  87 SE3       30.10R
MONTICELLO     CLOUDY    58  57  97 CALM      30.10R

$$






USA.gov is the U.S. government's official web portal to all federal, state and local government web resources and services.